Temperature
17 18 18 18 18 18 17 17 17 17 17 17 17 17 17 17 17 17 17 16 16 16 16 16 16 16 16 16 16 16 16 16 16 16 16 16 16 16 15 15 15 15 15
17 18 18 18 17 17 17 17 17 17 17 17 17 17 17 17 17 17 16 16 16 16 16 16 16 16 16 16 16 16 16 16 16 16 16 15 15 15 15 15 15 15 15
17 17 17 17 17 17 17 17 17 17 17 17 17 17 16 16 16 16 16 16 16 16 16 16 16 16 16 16 16 16 16 16 15 15 15 15 15 15 15 15 15 15 15
17 17 17 17 17 17 17 17 17 17 17 17 16 16 16 16 16 16 16 16 16 16 16 16 16 16 16 16 16 16 16 15 15 14 14 14 15 15 15 15 15 14 14
16 17 17 17 17 17 17 17 17 17 16 16 16 16 16 16 16 16 16 16 16 16 16 16 16 16 16 16 16 16 16 15 15 14 14 14 15 15 15 15 14 14 14
16 16 16 16 17 16 16 17 16 16 16 16 16 16 16 16 16 16 16 16 16 16 16 16 16 16 16 16 16 16 15 15 15 14 14 14 15 15 15 14 14 14 14
16 16 16 16 16 16 16 16 16 16 16 16 16 16 16 16 16 16 16 16 16 16 16 16 16 16 15 16 16 15 15 15 15 14 14 14 14 14 14 14 14 14 14
16 16 16 16 16 16 16 16 16 16 16 16 16 16 16 16 16 16 16 16 16 16 16 16 16 16 15 15 15 15 15 15 15 14 14 14 14 14 14 14 14 14 14
16 16 16 16 16 16 16 16 16 16 16 16 16 16 16 16 16 16 16 16 16 15 16 16 15 15 15 15 15 15 15 15 15 14 14 14 14 14 14 14 14 14 14
15 15 15 15 15 15 15 15 15 15 15 15 15 15 15 15 15 15 15 15 15 15 15 15 15 15 15 15 15 15 15 15 15 14 14 14 14 14 14 14 14 14 14
15 15 15 15 15 15 15 15 15 15 15 15 15 15 15 15 15 15 15 15 15 15 15 15 15 15 15 15 15 15 15 15 14 14 14 14 14 14 14 14 14 14 14
14 14 15 15 15 15 15 15 15 15 15 15 15 15 15 15 15 15 15 15 15 15 15 15 15 15 15 15 15 15 15 15 14 14 14 14 14 14 14 14 14 14 14
14 14 14 14 14 15 14 15 14 14 14 14 14 14 14 14 14 14 14 15 15 15 15 15 15 15 15 15 15 14 14 14 14 14 14 14 14 14 14 14 14 14 14
14 14 14 14 14 14 14 14 14 14 14 14 14 14 14 14 14 14 14 14 14 14 15 15 14 14 14 14 14 14 14 14 14 14 14 14 14 14 14 14 14 14 14
13 13 13 14 14 14 14 14 14 14 14 14 14 14 14 14 14 14 14 14 14 14 14 14 14 14 14 14 14 14 14 14 14 14 13 13 14 14 14 14 14 13 13
13 13 13 13 13 14 13 13 13 13 13 13 13 13 13 13 13 13 13 14 14 14 14 14 14 14 14 14 14 14 14 14 13 13 13 13 13 13 13 13 13 13 13
12 13 13 13 13 13 13 13 13 13 13 13 13 13 13 13 13 13 13 13 13 13 13 13 13 13 13 13 13 14 13 13 13 13 13 13 13 13 13 13 13 13 13
12 12 12 12 12 12 13 13 13 12 12 12 12 12 12 12 12 12 13 13 13 13 13 13 13 13 13 13 13 13 13 13 13 13 13 13 13 13 13 13 13 13 13
12 12 12 12 12 12 12 12 12 12 12 12 12 12 12 12 12 12 12 12 12 12 12 12 12 12 13 13 13 13 13 13 13 13 12 12 12 12 12 12 12 12 12
11 11 11 11 11 12 12 12 12 12 11 12 12 12 12 12 11 12 12 12 12 12 12 12 12 12 12 12 12 12 12 12 12 12 12 12 12 12 12 12 12 12 12
11 11 11 11 11 11 11 11 11 11 11 11 11 11 11 11 11 11 11 11 12 12 12 12 12 11 11 11 11 11 12 12 12 12 12 12 12 12 12 12 12 12 12
11 11 11 11 11 11 11 11 11 11 11 11 11 11 11 11 11 11 11 11 11 11 11 11 11 11 11 11 11 11 10 11 11 11 11 11 11 11 11 11 11 11 11
10 10 10 10 10 10 10 10 10 10 10 10 10 10 10 10 11 11 11 11 11 11 11 11 11 10 11 11 10 10 10 10 10 11 11 11 11 11 11 11 11 11 11
10 10 10 10 10 10 10 10 10 10 10 10 10 10 10 10 10 10 10 10 10 10 10 11 10 10 10 10 10 10 10 10 10 10 10 10 10 10 10 10 10 10 10
10 10 10 10 10 9 9 9 9 9 9 9 9 9 9 9 10 10 10 10 10 10 10 10 10 10 10 10 10 10 10 10 9 9 9 10 10 10 10 10 10 10 9
10 10 10 9 9 9 9 9 9 9 9 9 9 9 9 9 9 9 9 9 9 9 10 10 10 10 10 10 9 9 9 9 9 9 9 9 9 9 9 9 9 9 9
Wind_Speed
9 12 13 13 12 12 12 11 11 11 10 10 10 10 10 10 9 10 10 10 10 10 10 10 10 11 11 11 12 12 12 12 13 13 13 12 12 12 12 11 12 12 13
11 14 14 13 12 12 11 11 10 10 10 10 9 9 9 9 9 9 9 9 9 9 9 9 9 10 10 10 11 11 11 10 10 10 11 11 11 11 12 12 12 11 12
12 14 13 13 12 12 11 11 10 9 9 9 9 9 9 9 9 9 9 9 9 9 8 8 8 9 9 9 9 9 9 8 6 6 7 8 10 10 10 11 11 10 10
11 13 13 13 12 11 11 11 10 9 9 9 9 8 8 8 8 8 9 9 9 8 8 7 8 9 9 8 8 8 7 5 3 2 3 7 10 9 8 8 9 9 8
9 11 13 14 12 11 11 10 10 9 8 8 8 8 8 8 8 8 8 8 8 8 8 7 8 8 8 8 7 6 5 3 3 3 3 9 11 8 7 7 7 7 7
8 11 13 12 12 11 10 10 10 9 8 8 8 8 8 8 8 8 7 8 8 8 8 8 8 8 8 7 7 6 4 3 4 3 3 9 11 8 7 6 6 6 6
7 10 12 12 11 10 10 10 9 8 8 7 7 7 7 8 8 8 8 8 8 8 9 9 8 8 8 7 7 6 5 4 5 1 4 9 10 7 6 5 5 5 4
6 8 10 11 11 10 10 9 9 8 7 7 7 7 6 7 7 8 8 8 8 9 9 9 9 9 8 8 7 6 6 6 5 2 5 9 9 7 5 4 3 3 3
6 7 6 8 8 8 9 9 8 8 8 7 7 7 7 6 7 8 8 9 9 9 9 9 10 9 9 9 8 7 7 8 8 3 4 9 9 7 5 3 3 2 2
5 5 4 5 5 6 6 7 7 8 8 7 7 7 7 7 7 8 8 8 9 9 9 9 10 10 10 10 9 9 9 9 9 5 5 9 10 7 5 4 3 2 1
5 4 4 4 4 4 4 5 6 6 7 7 7 8 7 6 6 7 8 8 8 9 9 9 10 10 10 10 11 11 10 9 9 4 6 9 9 7 6 4 3 3 2
4 3 3 3 3 3 2 3 3 4 4 5 5 6 6 6 6 6 8 10 10 10 10 10 11 11 10 9 11 12 10 11 9 5 8 11 9 8 7 5 4 4 3
3 3 3 3 3 3 2 2 1 2 3 3 3 4 5 5 4 4 4 6 8 9 8 9 9 9 10 9 9 11 10 9 7 6 10 12 10 9 8 7 5 5 5
3 2 2 3 3 3 2 1 0 1 1 2 2 2 2 1 2 3 3 4 6 7 6 6 7 9 9 10 9 9 10 7 5 5 9 13 11 9 8 7 6 6 6
2 2 2 2 2 2 1 1 1 1 0 1 1 2 1 1 2 2 2 3 4 5 5 5 5 6 6 6 7 7 6 8 7 6 8 12 12 11 9 8 7 7 6
2 2 2 2 1 1 1 0 0 1 1 1 1 1 2 1 1 1 2 2 3 4 4 4 5 4 4 3 4 4 5 6 6 7 9 12 13 12 11 10 8 8 7
2 2 2 1 1 1 1 1 1 1 0 1 0 1 1 1 1 1 2 2 2 3 3 3 3 3 2 3 3 4 4 4 4 5 8 10 11 12 12 11 10 9 8
2 2 1 1 1 1 1 1 2 2 1 1 0 1 1 1 1 1 2 2 2 2 2 2 2 2 2 2 2 3 3 2 3 4 5 7 8 9 11 12 11 10 9
2 2 2 1 1 1 1 1 1 1 1 1 1 1 1 2 2 2 2 2 2 1 1 2 1 1 2 2 2 2 2 2 2 2 3 5 6 7 8 9 11 10 9
2 2 2 1 1 1 0 0 1 1 1 1 1 1 1 2 2 2 2 2 2 1 2 2 2 2 2 2 2 2 2 3 2 2 3 3 5 6 7 8 8 8 9
2 2 1 1 1 1 1 0 0 1 1 1 1 1 1 2 3 2 1 2 2 2 2 2 2 2 2 1 0 1 2 3 3 3 2 2 2 4 5 6 7 7 7
2 2 1 1 1 0 0 1 0 1 1 1 1 1 1 1 2 2 1 2 2 1 2 2 2 2 1 2 2 1 2 2 2 3 2 2 2 2 3 5 6 7 7
3 2 1 1 1 0 0 1 1 1 1 1 1 1 2 2 2 2 2 2 2 2 2 2 2 3 2 2 2 2 2 3 1 2 2 2 2 2 2 3 5 6 6
3 3 2 2 2 1 1 1 1 2 2 2 1 2 2 2 2 2 2 2 2 2 3 3 3 3 3 3 2 2 2 1 1 1 2 2 2 2 3 2 2 4 5
4 3 3 2 2 2 1 2 2 2 2 2 2 2 2 2 2 1 2 2 3 3 3 3 3 3 3 4 3 2 2 1 2 2 3 3 2 2 2 2 2 2 3
3 3 3 3 3 3 3 3 3 3 3 3 3 3 2 2 2 2 2 2 3 2 3 3 3 4 4 4 3 2 2 2 2 2 3 2 3 3 2 2 2 2 3
Wind_Direction
118 125 132 131 134 139 140 139 138 135 137 137 137 136 134 131 129 126 125 124 123 121 119 115 111 105 100 94 92 91 92 92 94 93 89 85 82 78 73 69 79 76 76
124 128 132 131 133 135 137 138 137 136 138 142 142 142 144 144 140 139 136 134 131 128 125 120 116 112 107 102 99 98 101 103 106 107 102 93 86 80 72 71 77 82 78
123 128 133 133 135 135 135 134 135 138 141 145 146 147 150 152 151 149 147 143 140 136 132 129 125 122 116 111 108 108 110 115 123 132 127 116 100 88 81 78 80 80 78
123 129 135 135 136 138 138 137 136 139 142 146 149 152 155 155 156 158 157 153 148 144 140 138 134 129 126 121 120 120 123 135 160 193 160 125 109 98 91 86 82 79 77
120 125 130 136 136 137 138 139 141 142 145 149 152 155 157 159 161 164 162 155 152 151 148 145 142 138 135 134 135 138 147 179 247 253 119 104 105 105 98 91 86 82 78
117 119 129 135 137 138 140 142 143 143 147 152 156 158 159 162 167 166 158 154 156 157 156 154 152 149 148 149 152 159 178 229 272 249 126 109 110 109 102 96 89 82 77
111 116 130 132 137 140 145 148 149 151 153 155 160 164 167 168 171 171 165 161 163 165 165 166 166 164 163 163 167 179 201 244 266 249 103 104 113 116 110 104 96 86 78
99 113 128 133 137 144 147 150 153 156 158 160 166 167 170 173 179 176 173 172 174 177 177 177 177 177 177 177 182 193 212 241 261 226 125 117 125 128 124 118 107 97 84
92 103 112 127 132 139 148 149 154 159 162 167 173 173 175 181 182 181 182 183 184 186 186 187 187 188 190 191 194 202 217 238 267 254 144 128 138 141 138 135 130 118 98
93 101 109 115 125 133 144 155 158 163 169 173 177 177 179 185 185 182 184 189 191 192 192 194 195 196 199 201 205 209 219 240 256 239 147 138 148 152 157 161 158 152 139
94 97 103 103 102 117 141 154 161 168 172 178 180 179 181 187 187 188 192 194 196 196 198 201 204 204 205 208 210 211 218 237 244 206 152 150 156 165 172 175 182 190 197
98 90 94 92 96 105 124 133 158 170 171 181 183 180 188 196 195 196 191 195 199 201 204 207 211 211 211 210 211 210 220 234 237 191 161 160 168 177 183 189 200 213 220
95 86 77 79 71 65 73 122 143 162 171 191 198 194 196 198 192 184 180 188 199 203 206 210 210 214 216 211 203 206 218 232 226 188 166 166 175 189 197 200 211 225 230
93 92 74 64 63 53 46 25 124 142 160 165 184 216 206 191 194 186 190 192 198 206 207 205 210 218 223 220 206 208 212 224 225 179 169 173 181 194 205 210 219 229 234
101 88 82 80 79 54 37 12 35 54 115 147 181 215 231 202 204 208 212 203 212 211 207 206 215 217 220 226 220 217 212 216 217 188 174 180 185 194 206 216 223 227 231
124 107 83 67 90 94 110 118 272 29 23 64 105 216 262 251 235 233 232 216 226 224 218 211 222 222 218 215 225 225 222 219 215 191 180 185 191 196 204 213 222 228 231
125 117 102 84 72 55 32 344 337 338 48 74 85 237 244 258 272 261 237 227 231 234 231 228 233 232 220 220 224 231 233 229 221 202 188 185 189 199 205 213 219 223 228
119 107 83 49 43 44 39 350 330 335 3 21 11 301 297 276 277 291 267 250 244 229 232 234 227 230 224 218 227 236 236 235 233 218 200 188 183 191 205 211 211 216 224
135 121 102 76 43 34 35 298 300 319 343 350 350 44 334 298 271 277 275 273 268 245 224 239 237 220 225 227 235 237 242 232 232 227 211 196 189 187 188 202 208 214 221
118 116 115 99 73 41 11 293 302 310 309 341 344 27 338 317 293 282 275 285 286 256 236 225 236 240 226 218 254 264 258 245 231 230 226 197 186 187 185 188 194 207 218
118 107 94 78 60 56 8 295 276 275 289 308 347 359 333 310 302 291 285 276 271 244 249 238 219 225 228 183 138 299 284 258 233 227 212 194 186 186 188 189 187 191 204
151 141 143 118 63 54 306 304 262 276 267 252 288 334 311 315 302 289 260 256 253 245 251 250 242 215 222 182 162 183 269 280 269 236 204 195 204 190 192 201 200 200 201
173 169 184 176 192 179 21 353 333 310 302 294 300 299 302 310 313 313 292 264 242 220 230 242 241 223 223 219 189 179 198 230 278 263 230 208 191 195 214 206 203 205 207
176 162 175 203 201 198 179 212 254 254 258 262 252 251 269 267 266 273 285 269 245 231 225 227 231 228 214 219 232 234 220 182 198 272 289 252 219 221 225 221 208 215 211
159 159 182 211 212 197 203 222 234 264 269 278 279 272 275 265 249 250 266 257 245 239 232 226 228 227 219 216 213 222 235 241 230 215 253 258 264 249 239 238 228 219 210
156 160 187 212 220 203 209 224 226 240 257 271 270 264 267 270 262 250 265 256 249 241 235 228 224 227 224 224 222 216 205 203 212 219 242 246 252 257 259 252 238 214 214
Height
1503 1505 1507 1509 1511 1514 1516 1518 1520 1522 1523 1525 1526 1528 1529 1530 1531 1532 1533 1534 1535 1536 1537 1538 1539 1539 1540 1541 1541 1542 1542 1543 1543 1544 1544 1544 1544 1544 1545 1545 1545 1545 1545
1502 1504 1507 1509 1511 1514 1516 1518 1520 1522 1524 1525 1527 1528 1529 1531 1532 1533 1534 1535 1536 1537 1538 1539 1540 1540 1541 1542 1542 1543 1543 1544 1545 1545 1545 1546 1546 1546 1546 1546 1546 1546 1546
1502 1504 1507 1509 1511 1514 1516 1518 1520 1522 1524 1526 1527 1529 1530 1531 1532 1534 1535 1536 1537 1538 1539 1540 1540 1541 1542 1543 1544 1544 1545 1545 1546 1546 1546 1546 1547 1547 1547 1547 1547 1547 1547
1502 1504 1506 1509 1511 1514 1516 1518 1520 1522 1524 1526 1527 1529 1530 1532 1533 1534 1535 1536 1537 1538 1539 1540 1541 1542 1543 1544 1544 1545 1546 1546 1547 1547 1548 1548 1548 1548 1548 1548 1548 1548 1547
1503 1504 1506 1509 1511 1513 1516 1518 1520 1522 1524 1526 1527 1529 1530 1532 1533 1534 1535 1536 1538 1539 1540 1541 1542 1542 1543 1544 1545 1546 1547 1547 1548 1548 1549 1549 1549 1548 1548 1548 1548 1548 1548
1503 1504 1506 1509 1511 1513 1515 1518 1520 1522 1523 1525 1527 1528 1530 1531 1533 1534 1535 1536 1538 1539 1540 1541 1542 1543 1544 1545 1545 1546 1547 1548 1548 1549 1549 1549 1549 1549 1548 1548 1548 1548 1548
1503 1505 1507 1509 1511 1513 1515 1517 1519 1521 1523 1525 1526 1528 1529 1530 1532 1533 1535 1536 1537 1538 1539 1540 1541 1542 1543 1544 1545 1546 1547 1548 1548 1549 1549 1549 1549 1549 1548 1548 1548 1548 1548
1504 1505 1507 1509 1510 1512 1514 1516 1518 1520 1522 1524 1525 1527 1528 1529 1531 1532 1534 1535 1537 1538 1539 1540 1541 1542 1543 1544 1545 1546 1546 1547 1548 1549 1549 1549 1549 1548 1548 1548 1548 1548 1547
1504 1505 1507 1508 1510 1512 1514 1515 1517 1519 1521 1522 1524 1525 1527 1528 1530 1531 1533 1534 1535 1537 1538 1539 1540 1541 1542 1543 1544 1545 1546 1547 1547 1548 1548 1548 1548 1548 1548 1548 1547 1547 1547
1504 1505 1506 1508 1509 1511 1513 1514 1516 1518 1519 1521 1522 1524 1525 1527 1528 1530 1531 1532 1534 1535 1536 1537 1539 1540 1541 1542 1543 1544 1545 1545 1546 1547 1547 1547 1547 1547 1547 1547 1547 1546 1546
1503 1505 1506 1507 1508 1510 1512 1513 1515 1516 1518 1519 1521 1522 1524 1525 1526 1528 1529 1531 1532 1533 1534 1536 1537 1538 1539 1540 1541 1542 1543 1544 1545 1545 1545 1546 1546 1546 1546 1546 1546 1545 1545
1503 1504 1505 1506 1508 1509 1510 1512 1513 1515 1516 1518 1519 1520 1522 1523 1524 1526 1527 1529 1530 1531 1532 1533 1535 1536 1537 1538 1539 1540 1541 1542 1543 1543 1544 1544 1544 1545 1545 1545 1544 1544 1544
1501 1503 1504 1505 1506 1508 1509 1510 1512 1513 1514 1516 1517 1519 1520 1521 1522 1523 1525 1526 1527 1528 1529 1531 1532 1533 1534 1535 1536 1537 1539 1540 1541 1541 1541 1542 1543 1543 1543 1543 1543 1543 1542
1500 1501 1503 1504 1505 1506 1507 1508 1510 1511 1512 1514 1515 1516 1518 1519 1520 1521 1522 1523 1525 1526 1527 1528 1529 1530 1532 1533 1534 1535 1536 1537 1538 1539 1539 1540 1540 1541 1541 1541 1541 1541 1540
1499 1500 1502 1503 1503 1505 1506 1507 1508 1509 1510 1512 1513 1514 1515 1516 1517 1518 1519 1521 1522 1523 1524 1525 1526 1527 1529 1530 1531 1532 1533 1534 1535 1536 1536 1537 1537 1538 1538 1538 1538 1538 1538
1498 1499 1500 1501 1502 1503 1504 1505 1506 1507 1508 1509 1510 1512 1513 1514 1515 1516 1516 1517 1519 1520 1521 1522 1523 1524 1525 1527 1528 1529 1530 1531 1532 1532 1533 1533 1534 1535 1535 1535 1535 1535 1535
1497 1498 1498 1499 1500 1501 1502 1503 1504 1505 1506 1507 1508 1509 1510 1511 1512 1512 1513 1514 1515 1516 1518 1519 1520 1521 1522 1523 1524 1525 1526 1527 1528 1529 1530 1530 1530 1531 1531 1532 1532 1532 1532
1495 1496 1497 1498 1498 1499 1500 1501 1501 1502 1504 1504 1505 1506 1507 1508 1509 1509 1510 1511 1512 1513 1514 1515 1516 1517 1518 1519 1520 1521 1522 1523 1524 1525 1526 1526 1526 1527 1527 1528 1528 1528 1528
1493 1494 1495 1496 1496 1497 1498 1499 1500 1500 1501 1502 1502 1503 1504 1504 1505 1506 1507 1507 1509 1510 1511 1512 1513 1513 1514 1515 1516 1517 1518 1519 1520 1521 1521 1522 1522 1523 1523 1523 1524 1524 1524
1492 1492 1493 1494 1494 1495 1496 1496 1497 1498 1499 1499 1500 1500 1501 1502 1502 1503 1504 1504 1505 1506 1507 1508 1509 1510 1511 1512 1512 1513 1514 1515 1516 1516 1517 1518 1518 1519 1519 1519 1519 1520 1520
1490 1491 1491 1492 1493 1493 1493 1493 1493 1495 1496 1496 1497 1497 1498 1498 1499 1500 1500 1501 1502 1503 1503 1504 1505 1506 1507 1508 1509 1509 1510 1510 1511 1512 1513 1513 1514 1514 1515 1515 1515 1515 1515
1488 1489 1489 1490 1491 1491 1491 1491 1491 1492 1493 1493 1494 1494 1495 1495 1496 1496 1497 1498 1499 1499 1500 1501 1501 1502 1503 1504 1505 1506 1506 1507 1507 1508 1508 1509 1509 1510 1510 1510 1510 1510 1510
1486 1487 1487 1488 1488 1488 1489 1489 1489 1490 1490 1490 1491 1491 1492 1492 1493 1493 1494 1494 1495 1496 1496 1497 1498 1499 1499 1500 1502 1504 1504 1503 1503 1504 1504 1505 1505 1505 1505 1506 1506 1506 1506
1484 1485 1485 1485 1485 1486 1486 1486 1486 1486 1487 1487 1488 1488 1488 1489 1489 1489 1490 1491 1491 1492 1492 1493 1494 1495 1495 1496 1498 1499 1500 1500 1501 1499 1500 1501 1501 1501 1501 1501 1501 1501 1501
1482 1482 1483 1483 1483 1483 1483 1483 1483 1484 1484 1484 1485 1485 1485 1485 1486 1486 1486 1486 1487 1487 1488 1489 1490 1490 1491 1492 1493 1494 1495 1496 1497 1496 1495 1496 1496 1497 1497 1497 1497 1497 1497
1480 1480 1480 1480 1480 1480 1480 1480 1480 1481 1481 1481 1481 1481 1481 1482 1482 1482 1482 1483 1483 1483 1484 1485 1485 1486 1487 1488 1489 1490 1491 1491 1492 1492 1492 1491 1491 1492 1492 1492 1492 1492 1492